{"data":{"norad_id":60750,"epoch":"2026-09-22T23:12:46.878336Z","epoch_age_seconds":78604,"freshness":"FRESH","line1":"1 60750U 24153F   26265.96720924  .00010376  00000+0  37960-3 0  9997","line2":"2 60750  97.6831  45.3249 0004099 262.0756  98.0017 15.28250499114726","mean_motion":15.28250499,"eccentricity":0.0004099,"inclination_deg":97.6831,"raan_deg":45.3249,"arg_perigee_deg":262.0756,"mean_anomaly_deg":98.0017,"bstar":0.0003796,"rev_number":11472,"period_min":94.225390467221,"perigee_km":478.23053738748,"apogee_km":483.85369242588,"semimajor_km":6859.1791149067,"source":"CELESTRAK","updated_at":"2026-09-23T09:00:20.719078Z"}}